Preview of NWS' New Version of Forecast
This preview is not operational and should not be used for support decisions.

Regional Weather Roundup (RWR)

Issued by National Weather Service (NWS)

                            
000
ASUS45 KABQ 211801
RWRNM 
NEW MEXICO REGIONAL WEATHER ROUNDUP
NATIONAL WEATHER SERVICE ALBUQUERQUE NM
1200 PM MDT SAT SEP 21 2019

NOTE: "FAIR" MEANS FEW OR NO CLOUDS BELOW 12,000 FEET AGL WITH NO
       SIGNIFICANT WEATHER OR OBSTRUCTIONS TO VISION.

      THIS PRODUCT IS RELEASED AS TWO VERSIONS.  ONE VERSION NEAR
      THE TOP OF THE HOUR CONTAINING PRELIMINARY DATA FROM ALBUQUERQUE
      AND OTHER STATIONS.  A FINAL VERSION WITH ADDITIONAL DATA IS 
      ISSUED ABOUT 10 MINUTES AFTER THE HOUR.
 
NMZ501-503-504-510>518-211900-
NORTHWEST PLATEAU/NORTHCENTRAL MOUNTAINS
  
CITY           SKY/WX    TMP DP  RH WIND       PRES   REMARKS
FARMINGTON     FAIR      72  27  18 MISG      30.10F                  
6HR MIN TEMP:  41; 6HR MAX TEMP:  72;                                

LOS ALAMOS     FAIR      70  24  17 SW16G24   30.21F                  
SANTA FE       FAIR      74  35  24 SW6       30.16F                  
6HR MIN TEMP:  44; 6HR MAX TEMP:  74;                                

TAOS           FAIR      70  29  21 SW15G22   30.21                   
ANGEL FIRE     FAIR      62  28  27 W15G24    30.26F                  

$$
NMZ402-403-502-505>509-211900-
WESTCENTRAL MOUNTAINS/SOUTHWEST MOUNTAINS
  
CITY           SKY/WX    TMP DP  RH WIND       PRES   REMARKS
GALLUP         FAIR      71  28  20 SW16G26   30.17F                  
6HR MIN TEMP:  39; 6HR MAX TEMP:  71;                                

GRANTS         FAIR      72  33  24 W12G17    30.20F                  
SILVER CITY    PTSUNNY   77  46  33 S3        30.15F                  

$$
NMZ407-409-411-412-211900-
SOUTHERN DESERTS
  
CITY           SKY/WX    TMP DP  RH WIND       PRES   REMARKS
DEMING         FAIR      79  45  29 S7        30.09F                  
6HR MIN TEMP:  60; 6HR MAX TEMP:  80;                                

LAS CRUCES     PTSUNNY   73  52  48 S13       30.12S                  
ALAMOGORDO     FAIR      81  54  39 SW17      30.07S                  
T OR C         FAIR      80  42  25 VRB3      30.09F                  
6HR MIN TEMP:  62; 6HR MAX TEMP:  81;                                


$$
NMZ519>523-211900-
CENTRAL VALLEYS/CENTRAL HIGHLANDS
  
CITY           SKY/WX    TMP DP  RH WIND       PRES   REMARKS
ALBUQUERQUE    FAIR      75  37  25 VRB3      30.12F                  
6HR MIN TEMP:  55; 6HR MAX TEMP:  75;                                

DOUBLE EAGLE   MOSUNNY   73  39  29 SW14      30.15F                  
CLINES CORNERS FAIR      72  34  24 W14G22    30.22F                  
6HR MIN TEMP:  48; 6HR MAX TEMP:  72;                                

BELEN          FAIR      77  32  19 E3        30.11F                  
6HR MIN TEMP:  53; 6HR MAX TEMP:  77;                                

SOCORRO        FAIR      79  34  19 CALM      30.09F                  
6HR MIN TEMP:  58; 6HR MAX TEMP:  80;                                


$$
NMZ524>526-539-540-211900-
SOUTHCENTRAL MOUNTAINS
  
CITY           SKY/WX    TMP DP  RH WIND       PRES   REMARKS
RUIDOSO        PTSUNNY   68  48  49 SE8       30.24S                  

$$
NMZ527>531-211900-
NORTHEAST HIGHLANDS/NORTHEAST PLAINS
  
CITY           SKY/WX    TMP DP  RH WIND       PRES   REMARKS
LAS VEGAS      FAIR      76  33  21 W20G26    30.16F                  
6HR MIN TEMP:  50; 6HR MAX TEMP:  76;                                

RATON          FAIR      76  25  15 SW16      30.08F                  
6HR MIN TEMP:  41; 6HR MAX TEMP:  77;                                

CLAYTON        FAIR      81  43  26 S12G23    30.04F                  
6HR MIN TEMP:  61; 6HR MAX TEMP:  81;                                


$$
NMZ532>537-211900-
EASTCENTRAL PLAINS
  
CITY           SKY/WX    TMP DP  RH WIND       PRES   REMARKS
TUCUMCARI      FAIR      83  60  45 SW13      30.00F                  
6HR MIN TEMP:  65; 6HR MAX TEMP:  84;                                

CANNON AFB     PTSUNNY   75  66  73 S10       30.08F                  
CLOVIS AIRPORT PTSUNNY   79  66  64 S15       30.07F                  

$$
NMZ028-029-033-538-211900-
SOUTHEAST PLAINS
  
CITY           SKY/WX    TMP DP  RH WIND       PRES   REMARKS
ROSWELL        CLOUDY    77  58  51 W7        30.04F                  
6HR MIN TEMP:  69; 6HR MAX TEMP:  79; 6HR PCP: TRACE;                

ARTESIA        DRIZZLE   72  72 100 W5        30.07S                  
CARLSBAD       PTSUNNY   78  63  59 S5        30.02S                  
6HR MIN TEMP:  72; 6HR MAX TEMP:  78; 6HR PCP: TRACE;                

HOBBS          LGT RAIN  72  68  88 S13       30.08S                  


$$